User: anonymous   Login
Location: Baix
(44.7118°N, 4.7648°E)
Time: 15:35:34
(UTC+00:00)
Language:

DELTA 2 DEB (DPAF) - Orbit

View from above orbital plane
View from above orbital plane
View from above satellite
View from above satellite

Ground track
Ground track

The orbit data is extracted from the following two-line orbital elements,

1 29110U 06016D   20292.95178097 +.00000589 +00000-0 +94589-4 0  9998
2 29110 098.3457 062.7109 0003393 180.9609 254.4218 14.75459229776012
Epoch (UTC): 18 October 2020 22:50:33
Eccentricity: 0.0003393
inclination: 98.3457°
perigee height: 641 km
apogee height: 646 km
right ascension of ascending node: 62.7109°
argument of perigee: 180.9609°
revolutions per day: 14.75459229
mean anomaly at epoch: 254.4218°
orbit number at epoch: 77601

The dashed part of the orbit path shows where the satellite is in the earth's shadow,  

DLR